www.pogodaiklimat.ru

Погода и климат >> Архив погоды >> Канада >> Онтарио >> Торонто


АРХИВ ПОГОДЫ в Торонто

Время (UTC), дата Ветер
(напр.,м/с)
 
Видим.   Явления Облачность Т
(С)
Тd
(С)
f
(%)
Тe
(С)
Тes
(С)
Комфортность P
(гПа)
Po
(гПа)
Тmin
(С)
Tmax
(С)
R
(мм)
R24
(мм)
S
(см)
09 19.03 С 1 24 км 1/0
[]
-3.3 -6.0 82 -6 -6 по сезону 1027.7 1006.0
12 19.03 З 2 24 км {снег} 3/0
[Ac As]
-3.6 -5.6 86 -7 -7 по сезону 1028.8 1007.0 -5.1 +3.3 0.6 1
15 19.03 Ю 1 24 км 5/5 600 м
[]
+2.1 -1.2 79 +1 +5 по сезону 1029.7 1008.0
18 19.03 ЮЗ 5 24 км 8/4 1500 м
[Cu med, cong Ac As Ci fib]
+5.2 -4.8 48 +1 +4 по сезону 1029.0 1007.4 -5.5 +6.6
21 19.03 З 6 24 км 6/6 1500 м
[]
+6.1 -8.2 35 +2 +3 по сезону 1027.7 1006.1
00 20.03 З 3 24 км 4/1 1500 м
[Sc Ci fib]
+2.5 -8.4 44 -0 -0 по сезону 1027.3 1005.6 -5.5 +7.3
03 20.03 ЮЗ 2 24 км ясно +1.4 -4.1 67 -2 -2 по сезону 1027.0 1005.4
06 20.03 Ю 2 24 км ясно +0.2 -5.3 66 -3 -3 по сезону 1026.0 1004.5 -5.5 +7.3 181
09 20.03 ЮВ 2 24 км 8/0
[]
-0.3 -5.0 71 -3 -3 по сезону 1024.6 1003.1
12 20.03 ЮЗ 3 24 км 5/0
[Ac As Ci fib]
+0.7 -4.5 68 -4 -3 по сезону 1024.1 1002.6 -0.5 +7.3
15 20.03 ЮЗ 6 24 км 3/0
[]
+6.1 -1.9 56 +2 +5 тепло 1023.7 1002.3
18 20.03 ЮЗ 6 24 км 6/4 1000 м
[Cu Sc Ci fib]
+9.0 -3.4 41 +6 +8 тепло 1021.7 1000.3 -0.5 +9.2
21 20.03 ЮЗ 6 24 км 10/10 1500 м
[]
+8.8 -5.0 37 +6 +6 тепло 1019.2 997.9
00 21.03 Ю 2 24 км 10/10 1500 м
[Sc]
+7.3 -3.9 45 +6 +6 тепло 1018.5 997.2 -0.5 +9.7
03 21.03 ЮЗ 4 24 км 10/10 1500 м
[]
+4.2 -1.1 68 0 0 по сезону 1019.3 998.0
06 21.03 Ю 2 24 км слаб. дождь 10/10 600 м
[Sc]
+3.5 +0.3 80 +1 +1 тепло 1017.4 996.2 -0.5 +9.7 0.0 190
09 21.03 В 2 8000 м 10/10 600 м
[]
+3.0 +1.0 87 -0 -0 тепло 1015.6 994.4
12 21.03 В 2 9000 м слаб. дождь {морось} 10/5 1000 м
[Sc Ac As]
+3.0 +1.2 88 -0 -0 тепло 1014.3 993.1 +2.9 +9.7 1
15 21.03 ЮВ 2 16 км 10/10 600 м
[]
+3.9 +1.0 81 +2 +2 тепло 1013.6 992.4
18 21.03 ЮЗ 2 24 км {дождь} 10/10 300 м
[Sc]
+5.6 +1.3 74 +4 +4 по сезону 1011.6 990.4 +2.9 +5.7 0.0
21 21.03 З 3 24 км 9/9 600 м
[]
+7.7 +2.3 69 +5 +6 тепло 1009.3 988.2
00 22.03 З 2 24 км 10/10 600 м
[Sc]
+6.1 +1.4 72 +4 +4 тепло 1009.1 988.0 +2.9 +7.9
03 22.03 СЗ 8 24 км 10/10 1000 м
[]
+4.5 +1.2 79 -1 -1 по сезону 1008.3 987.2
06 22.03 З 5 24 км слаб. морось 10/10 600 м
[Frnb]
+3.0 -0.5 78 -2 -2 по сезону 1006.9 985.8 +2.9 +7.9 0.0 41
09 22.03 З 4 24 км 10/10 1000 м
[]
+2.1 -0.6 82 -3 -3 по сезону 1004.9 983.9
12 22.03 СЗ 6 24 км слаб. дождь {морось} 10/10 300 м
[Sc]
+2.7 -0.4 80 -3 -3 по сезону 1004.1 983.1 +1.7 +7.9 0.0
15 22.03 СЗ 9 24 км 10/10 300 м
[]
+2.9 -1.4 73 -4 -4 по сезону 1004.0 982.9
18 22.03 С 12 24 км {снег, морось} 9/9 600 м
[Sc Ac trans]
+1.4 -4.5 65 -7 -7 очень
холодно
1006.0 984.8 +1.4 +3.6 0.0
21 22.03 СЗ 12 24 км 9/9 600 м
[]
+0.3 -6.8 59 -8 -8 очень
холодно
1007.6 986.4
00 23.03 СЗ 14 24 км 8/8 600 м
[Sc Ac As]
-2.0 -9.2 58 -11 -11 очень
холодно
1011.0 989.7 -2.2 +3.6
03 23.03 С 13 24 км 3/3 600 м
[]
-2.7 -10.3 56 -12 -12 очень
холодно
1013.7 992.3
06 23.03 СЗ 12 24 км ясно -4.3 -13.0 51 -14 -14 очень
холодно
1014.9 993.4 -4.3 +3.6 63
09 23.03 СЗ 10 24 км ясно -6.3 -14.5 52 -16 -16 очень
холодно
1016.7 995.1
12 23.03 СЗ 8 24 км ясно -6.5 -13.4 58 -15 -15 очень
холодно
1020.5 998.8 -6.9 +3.6
15 23.03 СЗ 6 24 км ясно -2.1 -14.3 39 -8 -4 холодно 1022.7 1001.0
18 23.03 СЗ 7 24 км ясно +3.0 -13.3 29 -2 +2 прохладно 1022.7 1001.1 -6.9 +3.4
21 23.03 З 7 24 км ясно +4.7 -11.7 29 0 +1 по сезону 1022.0 1000.4
00 24.03 З 6 24 км ясно +1.1 -8.9 47 -4 -4 прохладно 1022.8 1001.1 -6.9 +5.1
03 24.03 ЮЗ 3 24 км ясно -0.4 -8.8 53 -5 -5 прохладно 1022.5 1000.9
06 24.03 Ю 2 24 км ясно -1.3 -8.0 60 -5 -5 по сезону 1021.0 999.5 -6.9 +5.1 72
09 24.03 Ю 2 24 км ясно -1.7 -7.6 64 -4 -4 по сезону 1020.0 998.5
12 24.03 Ю 2 24 км 9/0
[Ci]
+1.7 -5.2 60 -1 0 по сезону 1019.9 998.4 -2.2 +5.1
15 24.03 З 4 24 км 10/0
[]
+5.7 -3.7 51 +2 +5 по сезону 1019.4 998.0
18 24.03 З 7 24 км 9/0
[As trans]
+7.8 -1.9 50 +4 +5 по сезону 1017.3 996.0 -2.2 +7.9
21 24.03 З 6 24 км 9/0
[]
+9.2 -1.2 48 +6 +7 тепло 1016.0 994.7
00 25.03 С 7 24 км 9/0 2000 м
[Ac trans Cs]
+3.6 -3.3 61 -2 -2 по сезону 1018.1 996.7 -2.2 +9.4
03 25.03 С 7 24 км 9/0 2000 м
[]
+0.6 -4.8 67 -6 -6 прохладно 1020.2 998.8
06 25.03 С 6 24 км 10/3 600 м
[Cu Sc Ac As]
-0.8 -5.6 70 -7 -7 прохладно 1022.0 1000.6 -2.2 +9.4 31
09 25.03 С 3 24 км 1/0 2000 м
[]
-4.3 -9.2 69 -10 -10 холодно 1023.1 1001.6
12 25.03 С 5 24 км ясно -3.8 -9.4 65 -10 -10 прохладно 1024.6 1003.0 -5.0 +9.4
15 25.03 С 2 24 км ясно -0.8 -14.2 35 -4 +5 прохладно 1025.7 1004.1
18 25.03 СЗ 6 24 км ясно +2.6 -17.6 21 -2 +4 прохладно 1023.9 1002.3 -5.0 +2.7
21 25.03 С 5 24 км ясно +2.8 -19.4 18 -1 +1 по сезону 1022.5 1000.9
00 26.03 СВ 2 24 км ясно -0.3 -17.1 27 -3 -3 прохладно 1023.0 1001.3 -5.0 +3.8
03 26.03 СЗ 5 24 км ясно -2.4 -13.4 43 -8 -8 холодно 1025.7 1004.0
06 26.03 СЗ 4 24 км ясно -3.4 -11.4 54 -9 -9 холодно 1026.2 1004.5 -5.0 +3.8 201

 

Местоположение метеостанции Торонто (Онтарио, Канада): широта 43.67 долгота -79.63 высота над уровнем моря 173 м.

В архиве по умолчанию представлена погода в Торонто за последнюю неделю. Архивные данные за месяц целиком и за предыдущие месяцы, начиная с января 2011 года, Вы можете получить, выбрав интересующий диапазон дат из раскрывающегося списка и нажав кнопку "Ввод!".


*Определитесь, кто Вы:
робот инопланетянин человек

Внимание! Время в таблицах - всемирное. Для получения местного времени необходимо прибавить поправку, которая равна -5 ч.

Смотрите также архив погоды в соседних городах и на ближайших метеорологических станциях:

Погода в Сешелте (Британская Колумбия, Канада) (18 км)
Погода в Торонто-Сити (Онтарио, Канада) (19 км)
Погода в Торонто Острова аэропорту (Онтарио, Канада) (19 км)
Погода в Шируотере (Новая Шотландия, Канада) (31 км)
Погода в Торонто Баттонвилл (Онтарио, Канада) (31 км)
Погода в Берлингтоне (Онтарио, Канада) (43 км)
Погода в Гамильтоне (Онтарио, Канада) (49 км)
Погода в Гвелфе (Онтарио, Канада) (49 км)
Погода в Вайнленде (Онтарио, Канада) (58 км)
Погода в Порт-Уэллере (Онтарио, Канада) (58 км)

Пояснения к столбцам:

Ветер - указаны скорость ветра в м/с - средняя за 10 мин, порывы в срок и между сроками (в фигурных скобках) и направление, откуда дует ветер: С - северный, СВ - северо-восточный, В - восточный, ЮВ - юго-восточный, Ю - южный, ЮЗ - юго-западный, З - западный, СЗ - северо-западный.
Видимость - горизонтальная дальность видимости в метрах или километрах. При видимости от 1 до 10 км при отсутствии осадков обычно наблюдается дымка, при ухудшении видимости до 1 км и менее - туман. В сухую погоду видимость может ухудшаться дымом, пылью или мглою.
Явления - указаны атмосферные явления, наблюдавшиеся в срок или в последний час перед сроком; фигурными скобками обозначены явления, наблюдавшиеся между сроками (за 1-3 часа до срока); квадратными скобками обозначены град или гололедные отложения с указанием их диаметра в мм.
Облачность - указаны через наклонную черту общая и нижняя облачность в баллах и высота нижней границы облаков в метрах; квадратными скобками обозначены формы облаков: Ci - перистые, Cs - перисто-слоистые, Cc - перисто-кучевые, Ac - высококучевые, As - высокослоистые, Sc - слоисто-кучевые, Ns - слоисто-дождевые, Cu - кучевые, Cb - кучево-дождевые. Подробнее классификацию облаков см. в Атласе облаков (PDF).
T - Температура воздуха - температура, измеренная на высоте 2 м над землей.
Td - Температура точки росы - температура, при понижении до которой содержащийся в воздухе водяной пар достигнет насыщения.
f - Относительная влажность воздуха - влажноcть воздуха, измеренная на высоте 2 м над землей.
Te - Эффективная температура - температура, которую ощущает одетый по сезону человек в тени. Характеристика душности погоды. При расчете учитывается влияние влажности воздуха и скорости ветра на теплоощущения человека.
Tes - Эффективная температура на солнце - температура, которую ощущает человек, с поправкой на солнечный нагрев. Характеристика знойности погоды. Зависит от высоты солнца над горизонтом, облачности и скорости ветра. Ночью, в пасмурную погоду, а также при ветре 12 м/с и более поправка равна нулю.
P - Атмосферное давление - приведенное к уровню моря атмосферное давление.
Po - Атмосферное давление - измеренное на уровне метеостанции атмосферное давление.
Tmin - Минимальная температура - минимум температуры воздуха на высоте 2 м над землей.
Tmax - Максимальная температура - максимум температуры воздуха на высоте 2 м над землей.
R - Количество осадков - Количество выпавших осадков за период времени, мм. При наведении курсора мыши на число - период времени, за который выпало указанное количество осадков.
R24 - Количество осадков - Количество выпавших осадков за 24 часа, мм.
S - Снежный покров - Высота снежного покрова, см. При наведении курсора мыши на число - состояние снежного покрова и степень покрытия местности в баллах.